Regional Weather Roundup
Issued by NWS

Home | Current Version | Previous Version | Text Only | Print | Product List | Glossary On
Versions: 1 2 3 4 5 6 7 8 9 10 11 12 13 14 15 16 17 18 19 20 21 22 23 24 25 26 27 28
000
ASCA42 TJSJ 081910
RWRPR
PUERTO RICO/U.S. VIRGIN ISLANDS HOURLY WEATHER ROUNDUP
NATIONAL WEATHER SERVICE SAN JUAN PR
300 PM AST THU DEC 08 2016

PRZ001>002-007>008-010-082000-
PUERTO RICO

CITY           SKY/WX    TMP DP  RH WIND       PRES   REMARKS
SAN JUAN LMM   MOSUNNY   84  70  61 E14       30.00F
AGUADILLA      MOSUNNY   82  70  65 E14G22    30.02F
CEIBA          MOSUNNY   82  72  69 NE12      30.01F
$$

VIZ001>002-082000-
U.S. VIRGIN ISLANDS

CITY           SKY/WX    TMP DP  RH WIND       PRES   REMARKS
CHARLOTTE AMA  MOSUNNY   84  72  65 NE9       29.98F
CHRISTIANSTED  MOSUNNY   84  72  65 NE13      29.98F
$$

HOURLY WEATHER ROUNDUP FOR THE NEWS MEDIA

CITY           SKY/WX    TMP DP  RH WIND       PRES   REMARKS
ORLANDO        SUNNY     71  53  52 NW6       30.11F
NEW YORK       CLOUDY    45  21  38 W18G25    29.90F
NEWARK         CLOUDY    44  19  36 W21G28    29.88F
CHICAGO        CLOUDY    20  12  71 W18G26    30.28R WCI   5
HARTFORD       CLOUDY    44  33  65 W9        29.80S
BOSTON         CLOUDY    42  31  64 SW9       29.79F
DALLAS         CLOUDY    35  18  49 N15G23    30.63F WCI  25
PHILADELPHIA   CLOUDY    45  21  38 W14       29.94S
LOS ANGELES    PTSUNNY   64  43  46 CALM      30.25F
WASHINGTON DC  CLOUDY    23  16  74 W17       30.29R WCI   9



USA.gov is the U.S. government's official web portal to all federal, state and local government web resources and services.